Погода в Нижнем-Нойбере

Россия / Чеченская Республика     43°16′12″N   46°16′37″E
темп.,
°C
ветер,
м/с
пор.,
м/с
влажн.,
%
обл.,
%
осадки,
мм/ч
давл.,
гПа
погр.,
м
22 мая, вс
вс2200:00+12ю22592 0.0 101319
03:00+12ююз22590 0.0 101220
06:00+15ююз22565 0.0 101047
09:00+22всв23400 0.0 1008652
12:00+26всв43330 0.0 1005949
15:00+27всв44290 0.0 10031409
18:00+21в36560 0.0 1002153
21:00+15ююз11730 0.0 100215
23 мая, пн
пн2300:00+14зюз33700 0.0 100233
03:00+13зюз346627 0.0 100358
06:00+15зюз3767100 0.0 1004273
09:00+19ссз33589 0.0 10041097
12:00+22св444999 0.0 10031823
15:00+19вюв1267100 0.2 100262
18:00+16юв1283100 0.8 100257
21:00+14ссз1296100 4.1 1003106
24 мая, вт
вт2400:00+13зсз0197100 4.6 100545
03:00+13з3797100 8.5 1005436
06:00+12з61196100 6.2 1007776
09:00+11зюз61196100 13.5 1009661
12:00+11зюз4796100 8.4 1011442
15:00+12ююз2590100 9.7 1011281
18:00+13юз2685100 0.0 1012255
21:00+11зюз118783 0.0 101211
25 мая, ср
ср2500:00+10зюз2286100 0.0 101315
03:00+11зюз2786100 0.0 1015231
06:00+10з61196100 3.6 1017687
09:00+10юз51191100 6.1 1018443
12:00+11юз4990100 2.1 1020692
15:00+12зюз468998 2.9 1020482
18:00+15юз237116 0.0 1021378
21:00+10ююз228370 0.0 102227
26 мая, чт
чт2600:00+10ююз337550 0.0 102250
03:00+9ююз22765 0.0 102324
06:00+12юз22715 0.0 102381
09:00+17сз22585 0.0 1023844
12:00+20ссв325015 0.0 10211559
15:00+20всв335269 0.0 10201406
18:00+19всв3567100 0.0 1019244
21:00+14ююв2272100 0.0 101918